This is the latest recevied weather packets stored in our database for station/object AA7F. If no packets are shown the sender has not sent any weather packets the latest 10 day(s).
| Time | Temp. | Humidity | Pressure | Rain* | Wind** | Luminosity | Snow |
|---|---|---|---|---|---|---|---|
| 1777825841 | 17.22° C | 62% | 1013.8 hPa | 0 mm | - | 609 W/m² | - |
| 1777824326 | 15.56° C | 65% | 1014.2 hPa | 0 mm | - | 526 W/m² | - |
| 1777824021 | 15.56° C | 65% | 1014.1 hPa | 0 mm | - | 501 W/m² | - |
| 1777823718 | 15° C | 67% | 1014.2 hPa | 0 mm | - | 465 W/m² | - |
| 1777823415 | 15° C | 67% | 1014.1 hPa | 0 mm | - | 418 W/m² | - |
| 1777821600 | 13.33° C | 72% | 1014.1 hPa | 0 mm | - | 304 W/m² | - |
| 1777817055 | 10.56° C | 81% | 1014.2 hPa | 0 mm | - | 107 W/m² | - |
| 1777813116 | 10° C | 81% | 1013.8 hPa | 0 mm | - | 17 W/m² | - |
| 1777811299 | 10° C | 80% | 1013.8 hPa | 0 mm | - | 2 W/m² | - |
| 1777810694 | 10.56° C | 79% | 1014 hPa | 0 mm | - | 0 W/m² | - |
| 1777808877 | 10.56° C | 79% | 1013.6 hPa | 0 mm | - | 0 W/m² | - |
| 1777806150 | 9.44° C | 85% | 1013.8 hPa | 0 mm | - | 0 W/m² | - |
| 1777805846 | 9.44° C | 86% | 1014 hPa | 0 mm | - | 0 W/m² | - |
| 1777805544 | 8.89° C | 87% | 1013.8 hPa | 0 mm | - | 0 W/m² | - |
| 1777805241 | 8.89° C | 86% | 1014 hPa | 0 mm | - | 0 W/m² | - |
| 1777804636 | 11.11° C | 80% | 1014.2 hPa | 0 mm | - | 0 W/m² | - |
| 1777804334 | 11.11° C | 78% | 1013.8 hPa | 0 mm | - | 0 W/m² | - |
| 1777804030 | 11.11° C | 80% | 1013.8 hPa | 0 mm | - | 0 W/m² | - |
| 1777803728 | 10° C | 83% | 1013.7 hPa | 0 mm | - | 0 W/m² | - |
| 1777803423 | 11.11° C | 79% | 1014 hPa | 0 mm | - | 0 W/m² | - |
| 1777803121 | 10.56° C | 81% | 1013.5 hPa | 0 mm | - | 0 W/m² | - |
| 1777802818 | 10.56° C | 81% | 1013.5 hPa | 0 mm | - | 0 W/m² | - |
| 1777802516 | 11.11° C | 79% | 1013.8 hPa | 0 mm | - | 0 W/m² | - |
| 1777802213 | 10° C | 83% | 1013.5 hPa | 0 mm | - | 0 W/m² | - |
| 1777801912 | 10° C | 83% | 1013.6 hPa | 0 mm | - | 0 W/m² | - |
* Rain latest hour (hover to see other rain measurements)
** Current wind speed in m/s (hover to see current wind gust speed)